When you browse on this site, cookies collect data to enhance your experience and personalize the content and advertising you see.
Visit our Privacy Policy to learn more. By continuing to use the site, you agree to this use of cookies and data.

Hourly Weather Satif

Today, 3 August, Monday

Time Temperature Precipitation Wind Pressure Humidity
00:00 +27°C° 0 mm 1 mps 673 mmHg 36%
01:00 +24°C° 0 mm 0 mps 672 mmHg 37%
02:00 +24°C° 0 mm 0 mps 672 mmHg 37%
03:00 +23°C° 0 mm 0 mps 671 mmHg 38%
04:00 +24°C° 0 mm 0 mps 671 mmHg 36%
05:00 +25°C° 0 mm 0 mps 672 mmHg 34%
06:00 +29°C° 0 mm 1 mps 673 mmHg 30%
07:00 +31°C° 0 mm 2 mps 673 mmHg 26%
08:00 +34°C° 0 mm 3 mps 673 mmHg 22%
09:00 +36°C° 0 mm 4 mps 674 mmHg 18%
10:00 +36°C° 0 mm 5 mps 673 mmHg 18%
11:00 +38°C° 0 mm 6 mps 673 mmHg 19%
12:00 +38°C° 0 mm 7 mps 673 mmHg 19%
13:00 +36°C° 0.1 mm 6 mps 673 mmHg 22%
14:00 +35°C° 0.1 mm 6 mps 672 mmHg 25%
15:00 +34°C° 0.1 mm 5 mps 672 mmHg 28%
16:00 +32°C° 0.7 mm 5 mps 671 mmHg 35%
17:00 +28°C° 0.7 mm 4 mps 671 mmHg 42%
18:00 +26°C° 0.7 mm 3 mps 671 mmHg 49%
19:00 +26°C° 0 mm 2 mps 671 mmHg 50%
20:00 +26°C° 0 mm 2 mps 671 mmHg 52%
21:00 +26°C° 0 mm 1 mps 671 mmHg 53%
22:00 +25°C° 0 mm 1 mps 671 mmHg 57%
23:00 +24°C° 0 mm 1 mps 671 mmHg 62%

Tomorrow, 4 August, Tuesday

Time Temperature Precipitation Wind Pressure Humidity
00:00 +23°C° 0 mm 1 mps 670 mmHg 66%
01:00 +22°C° 0 mm 1 mps 670 mmHg 72%
02:00 +21°C° 0 mm 2 mps 670 mmHg 78%
03:00 +20°C° 0 mm 3 mps 670 mmHg 85%
04:00 +20°C° 0 mm 2 mps 670 mmHg 84%
05:00 +20°C° 0 mm 2 mps 670 mmHg 83%
06:00 +20°C° 0 mm 2 mps 671 mmHg 83%
07:00 +21°C° 0 mm 2 mps 671 mmHg 78%
08:00 +21°C° 0 mm 2 mps 671 mmHg 73%
09:00 +23°C° 0 mm 2 mps 672 mmHg 67%
10:00 +25°C° 0 mm 2 mps 672 mmHg 60%
11:00 +26°C° 0 mm 2 mps 672 mmHg 53%
12:00 +28°C° 0 mm 2 mps 672 mmHg 45%
13:00 +28°C° 0 mm 3 mps 672 mmHg 44%
14:00 +29°C° 0 mm 4 mps 672 mmHg 43%
15:00 +29°C° 0 mm 5 mps 672 mmHg 41%
16:00 +27°C° 0 mm 5 mps 672 mmHg 46%
17:00 +26°C° 0 mm 5 mps 671 mmHg 52%
18:00 +23°C° 0 mm 5 mps 671 mmHg 57%
19:00 +22°C° 0 mm 4 mps 671 mmHg 61%
20:00 +21°C° 0 mm 4 mps 672 mmHg 66%
21:00 +20°C° 0 mm 3 mps 672 mmHg 70%
22:00 +20°C° 0 mm 2 mps 672 mmHg 72%
23:00 +19°C° 0 mm 2 mps 671 mmHg 73%

Day after tomorrow, 5 August, Wednesday

Time Temperature Precipitation Wind Pressure Humidity
00:00 +19°C° 0 mm 2 mps 671 mmHg 75%
01:00 +19°C° 0 mm 2 mps 671 mmHg 76%
02:00 +18°C° 0 mm 2 mps 671 mmHg 77%
03:00 +19°C° 0 mm 1 mps 671 mmHg 77%
04:00 +19°C° 0 mm 1 mps 671 mmHg 76%
05:00 +19°C° 0 mm 1 mps 671 mmHg 74%
06:00 +20°C° 0 mm 1 mps 671 mmHg 73%
07:00 +21°C° 0 mm 1 mps 672 mmHg 64%
08:00 +23°C° 0 mm 1 mps 672 mmHg 56%
09:00 +25°C° 0 mm 1 mps 673 mmHg 47%
10:00 +26°C° 0 mm 1 mps 673 mmHg 41%
11:00 +28°C° 0 mm 2 mps 673 mmHg 35%
12:00 +30°C° 0 mm 2 mps 673 mmHg 29%
13:00 +30°C° 0 mm 3 mps 673 mmHg 29%
14:00 +30°C° 0 mm 4 mps 673 mmHg 29%
15:00 +32°C° 0 mm 5 mps 673 mmHg 28%
16:00 +29°C° 0 mm 5 mps 672 mmHg 34%
17:00 +27°C° 0 mm 5 mps 672 mmHg 39%
18:00 +26°C° 0 mm 5 mps 672 mmHg 44%
19:00 +25°C° 0 mm 4 mps 672 mmHg 47%
20:00 +22°C° 0 mm 3 mps 672 mmHg 50%
21:00 +21°C° 0 mm 2 mps 672 mmHg 52%
22:00 +21°C° 0 mm 2 mps 672 mmHg 53%
23:00 +21°C° 0 mm 1 mps 672 mmHg 53%

6 August, Thursday

Time Temperature Precipitation Wind Pressure Humidity
00:00 +21°C° 0 mm 1 mps 672 mmHg 54%
01:00 +21°C° 0 mm 1 mps 672 mmHg 54%
02:00 +20°C° 0 mm 1 mps 672 mmHg 55%
03:00 +20°C° 0 mm 1 mps 671 mmHg 56%
04:00 +20°C° 0 mm 1 mps 672 mmHg 54%
05:00 +18°C° 0 mm 0 mps 672 mmHg 53%
06:00 +19°C° 0 mm 0 mps 673 mmHg 51%
07:00 +20°C° 0 mm 0 mps 673 mmHg 47%
08:00 +24°C° 0 mm 1 mps 674 mmHg 43%
09:00 +26°C° 0 mm 1 mps 675 mmHg 39%
10:00 +27°C° 0 mm 2 mps 675 mmHg 33%
11:00 +29°C° 0 mm 2 mps 675 mmHg 28%
12:00 +30°C° 0 mm 3 mps 675 mmHg 23%
13:00 +32°C° 0 mm 4 mps 675 mmHg 22%
14:00 +32°C° 0 mm 4 mps 675 mmHg 21%
15:00 +32°C° 0 mm 5 mps 675 mmHg 20%
16:00 +30°C° 0 mm 4 mps 675 mmHg 23%
17:00 +29°C° 0 mm 4 mps 674 mmHg 25%
18:00 +27°C° 0 mm 4 mps 674 mmHg 28%
19:00 +26°C° 0 mm 3 mps 674 mmHg 33%
20:00 +24°C° 0 mm 3 mps 674 mmHg 39%
21:00 +23°C° 0 mm 2 mps 674 mmHg 44%
22:00 +21°C° 0 mm 2 mps 674 mmHg 46%
23:00 +21°C° 0 mm 1 mps 674 mmHg 48%

7 August, Friday

Time Temperature Precipitation Wind Pressure Humidity
00:00 +21°C° 0 mm 1 mps 674 mmHg 50%
01:00 +20°C° 0 mm 1 mps 674 mmHg 52%
02:00 +19°C° 0 mm 1 mps 673 mmHg 53%
03:00 +17°C° 0 mm 0 mps 673 mmHg 54%
04:00 +18°C° 0 mm 0 mps 674 mmHg 51%
05:00 +18°C° 0 mm 0 mps 674 mmHg 48%
06:00 +19°C° 0 mm 0 mps 675 mmHg 45%
07:00 +23°C° 0 mm 1 mps 675 mmHg 37%
08:00 +24°C° 0 mm 1 mps 676 mmHg 30%
09:00 +26°C° 0 mm 1 mps 676 mmHg 22%
10:00 +28°C° 0 mm 1 mps 677 mmHg 20%
11:00 +29°C° 0 mm 2 mps 677 mmHg 18%
12:00 +30°C° 0 mm 3 mps 677 mmHg 16%
13:00 +30°C° 0 mm 3 mps 677 mmHg 18%
14:00 +32°C° 0 mm 4 mps 676 mmHg 19%
15:00 +32°C° 0 mm 5 mps 676 mmHg 20%
16:00 +30°C° 0 mm 5 mps 676 mmHg 25%
17:00 +28°C° 0 mm 5 mps 676 mmHg 31%
18:00 +27°C° 0 mm 5 mps 676 mmHg 36%
19:00 +26°C° 0 mm 4 mps 676 mmHg 43%
20:00 +24°C° 0 mm 3 mps 676 mmHg 50%
21:00 +23°C° 0 mm 2 mps 675 mmHg 58%
22:00 +21°C° 0 mm 2 mps 675 mmHg 59%
23:00 +22°C° 0 mm 1 mps 675 mmHg 61%

8 August, Saturday

Time Temperature Precipitation Wind Pressure Humidity
00:00 +21°C° 0 mm 1 mps 675 mmHg 63%
01:00 +20°C° 0 mm 1 mps 675 mmHg 64%
02:00 +20°C° 0 mm 1 mps 674 mmHg 65%
03:00 +17°C° 0 mm 0 mps 674 mmHg 66%
04:00 +20°C° 0 mm 1 mps 674 mmHg 62%
05:00 +21°C° 0 mm 1 mps 675 mmHg 58%
06:00 +22°C° 0 mm 1 mps 675 mmHg 53%
07:00 +23°C° 0 mm 1 mps 676 mmHg 45%
08:00 +25°C° 0 mm 1 mps 676 mmHg 37%
09:00 +27°C° 0 mm 1 mps 677 mmHg 30%
10:00 +28°C° 0 mm 1 mps 677 mmHg 26%
11:00 +30°C° 0 mm 1 mps 677 mmHg 23%
12:00 +31°C° 0 mm 2 mps 677 mmHg 19%
13:00 +33°C° 0 mm 3 mps 677 mmHg 19%
14:00 +33°C° 0 mm 4 mps 676 mmHg 19%
15:00 +33°C° 0 mm 4 mps 676 mmHg 19%
16:00 +32°C° 0 mm 4 mps 676 mmHg 23%
17:00 +30°C° 0 mm 4 mps 675 mmHg 27%
18:00 +29°C° 0 mm 4 mps 675 mmHg 31%
19:00 +27°C° 0 mm 3 mps 675 mmHg 35%
20:00 +26°C° 0 mm 3 mps 675 mmHg 39%
21:00 +25°C° 0 mm 2 mps 675 mmHg 44%
22:00 +24°C° 0 mm 1 mps 674 mmHg 46%
23:00 +23°C° 0 mm 1 mps 674 mmHg 47%
Show more